User: anonymous   Login
Location: Unspecified
(0.0000°N, 0.0000°E)
Time: 17:40:54
(UTC+00:00)
Language:

VELOX 1 - Orbit

View from above orbital plane
View from above orbital plane
View from above satellite
View from above satellite

Ground track
Ground track

The orbit data is extracted from the following two-line orbital elements,

1 40057U 14034E   18200.27522533  .00000234  00000-0  40442-4 0  9995
2 40057  98.2070 311.8817 0010099 220.0827 139.9658 14.77452627218381
Epoch (UTC): 19 July 2018 06:36:19
Eccentricity: 0.0010099
inclination: 98.2070°
perigee height: 630 km
apogee height: 644 km
right ascension of ascending node: 311.8817°
argument of perigee: 220.0827°
revolutions per day: 14.77452627
mean anomaly at epoch: 139.9658°
orbit number at epoch: 21838

The dashed part of the orbit path shows where the satellite is in the earth's shadow,  

DLR